COSMOS 1275 DEB

Satellite information

Favourite Embed

Satellite Type and Status

DEBRISIN ORBIT

Key statistics

Satellite COSMOS 1275 DEB at a glance.

Uptime

16103

Days in orbit

Revolutions

≈ 14.2

Per day

Orbit

LEO

Low Earth Orbit

Inclination

82.9

Latest

Satellite identification and parameters

Extended collection of information and parameters for COSMOS 1275 DEB.

Object identification

Identified? True

Debris? True

Object name: COSMOS 1275 DEB

International designator: 1981-053GD

Object number (NORAD): 13483

Object ID (CCSDS): 13483

Country: COMMONWEALTH OF INDEPENDENT STATES (CIS)

Current information (Y/N): Y

RCS size: SMALL

Orbital parameters

Period: 101.349 minutes

Inclination: 82.9229 deg

SMA: 7200.697 km

Apoapsis: 830.463 km

Periapsis: 814.661 km

RAAN: 3.9773 deg

Eccentricy: 0.0010972

Argument of periapsis: 60.6781 deg

Mean anomaly: 66.959 deg

Mean motion: 14.20826203 rev/day

Mean motion (dot): 0.00001697 rev/day2

B* drag term: 0.00077785 1/REarth

Two-line elements (TLE)

Creation date: July 5, 2025, 10:46 p.m.

Reference frame: TEME

Reference center: EARTH

Epoch: July 5, 2025, 9:57 p.m. UTC

TLE line 0: 0 COSMOS 1275 DEB

TLE line 1: 1 13483U 81053GD 25186.91492957 .00001697 00000-0 77785-3 0 9994

TLE line 2: 2 13483 82.9229 3.9773 0010972 60.6781 66.9590 14.20826203198549

Live tracking on map

Real-time ground track for satellite COSMOS 1275 DEB.

In-orbit conjunctions

A list of the most updated potential collisions computed for object COSMOS 1275 DEB.

Target Orbit TCA Probability of collision Miss distance Type
SL-16 DEB LEO 2025-02-09 01:56:34 0.0001730076 217.0 (m) DEBRIS
NOAA 16 DEB SSO 2024-11-11 05:35:11 0.0001964444 314.0 (m) DEBRIS
SL-3 R/B LEO 2024-11-09 15:01:38 0.0007002727 687.0 (m) ROCKET BODY

Associated space launch

Navigation satellite providing location information for the Tsiklon-B navigation system

COSMOS 1275 DEB was lifted into orbit during the mission ‘Kosmos-3M | Parus 27’, on board a Kosmos-3M space rocket.

The launch took place on June 4, 1981, 3:41 p.m. from 132/2.

For more information about the launch, click the button.

Launch to space Kosmos-3M | Parus 27
Kosmos-3M | Parus 27

Agency: N/A

Status: Launch Successful

Launch date: June 4, 1981, 3:41 p.m. UTC

Rocket: Kosmos-3M

Launch pad: 132/2

Location: Plesetsk Cosmodrome, Russian Federation

...

Latest news about this satellite

There are no fresh news available about this satellite. Check back as we update our databases every day.


Newsletter sign-up

Weekly statistics, charts and insights to help you stay on top of the space industry.